Location: Camp Roosevelt
(41.7914°N, 81.1673°W)
Time: 08:38:03
(UTC+00:00)

ERS-2 - Pass Details

Date: 29 October 2020
Orbit: 493 x 497 km, 98.6° (Epoch: 28 November)

Event Time Altitude Azimuth Distance (km) Brightness Sun altitude
Rises 23:30:40 0° 4° (N) 2,585 5.6 -13.3°
Reaches altitude 10° 23:32:52 10° 355° (N) 1,698 4.8 -13.7°
Maximum altitude 23:36:11 34° 290° (WNW) 831 3.8 -14.3°
Drops below altitude 10° 23:39:30 10° 224° (SW) 1,687 5.5 -14.9°
Sets 23:41:40 0° 215° (SW) 2,565 6.3 -15.3°
